Regional Weather Roundup
Issued by NWS Little Rock, AR

Home | Current Version | Previous Version | Text Only | Print | Product List | Glossary On
Versions: 1 2 3 4 5 6 7 8 9 10 11 12 13 14 15 16 17 18 19 20 21 22 23 24 25 26 27 28 29 30 31
000
ASUS44 KLZK 231605
RWRLZK

WEATHER ROUNDUP FOR ARKANSAS
NATIONAL WEATHER SERVICE LITTLE ROCK AR
1100 AM CDT SUN APR 23 2017

NOTE: "FAIR" INDICATES FEW OR NO CLOUDS BELOW 12,000 FEET WITH NO
SIGNIFICANT WEATHER AND/OR OBSTRUCTIONS TO VISIBILITY.

ARZ001-003-010-029-231700-
NORTHWEST ARKANSAS

CITY           SKY/WX    TMP DP  RH WIND       PRES   REMARKS
FAYETTEVILLE   SUNNY     57  37  47 NE9G16    30.13S
FORT SMITH     SUNNY     63  36  36 NE9       30.11F
HARRISON       SUNNY     56  38  50 N9G17     30.11S
BENTONVILLE    SUNNY     57  37  47 NE13      30.15R
ROGERS         SUNNY     57  35  43 N10       30.15R
SILOAM SPGS    SUNNY     57  37  47 E8        30.15R
HIGHFILL       SUNNY     59  37  44 N13       30.14S
SPRINGDALE     SUNNY     55  36  47 NE12      30.15R
$$

ARZ004-005-016-231700-
NORTH CENTRAL ARKANSAS

CITY           SKY/WX    TMP DP  RH WIND       PRES   REMARKS
BATESVILLE     SUNNY    N/A N/A N/A NW8       30.04F
FLIPPIN        SUNNY    N/A N/A N/A NE13G21   30.06S
MTN HOME       SUNNY     59  37  44 NE9G21    30.07S
$$

ARZ040-041-231700-
WEST CENTRAL ARKANSAS

CITY           SKY/WX    TMP DP  RH WIND       PRES   REMARKS
MENA           SUNNY     61  41  48 N9        30.10R
MOUNT IDA      SUNNY     61  40  45 N5        30.05
$$

ARZ009-017-025-026-028-231700-
NORTHEAST ARKANSAS

CITY           SKY/WX    TMP DP  RH WIND       PRES   REMARKS
CORNING        FAIR      57  41  54 N16       30.02F
JONESBORO      SUNNY     58  44  60 N8G20     30.00R
NEWPORT        SUNNY     57  44  62 N20       30.01F
WALNUT RIDGE   SUNNY     59  41  51 N21       30.02S
BLYTHEVILLE    CLOUDY    54  46  74 N15       29.98R
$$

ARZ022-023-033-042-044-231700-
CENTRAL ARKANSAS

CITY           SKY/WX    TMP DP  RH WIND       PRES   REMARKS
LITTLE ROCK    MOSUNNY   61  44  53 N16G23    30.04S
N LITTLE ROCK    N/A     59  44  57 N9G17     30.05S
JACKSONVILLE   SUNNY     61  41  49 N14G23    30.03S
CONWAY           N/A     61  43  51 N14       30.04F
HOT SPRINGS    SUNNY     62  43  49 N9        30.05F
RUSSELLVILLE   SUNNY     62  38  40 N14       30.08R
$$

ARZ036-231700-
EAST ARKANSAS

CITY           SKY/WX    TMP DP  RH WIND       PRES   REMARKS
WEST MEMPHIS   CLOUDY    54  46  74 N13G20    29.97S
$$

ARZ050-053-066-070-073-231700-
SOUTHWEST ARKANSAS

CITY           SKY/WX    TMP DP  RH WIND       PRES   REMARKS
ARKADELPHIA    FAIR      62  47  57 N9        30.06F
CAMDEN         MOSUNNY   63  41  45 N12G20    30.05F
TEXARKANA      SUNNY     60  44  55 NE8G17    30.08S
EL DORADO      CLOUDY    60  48  64 NW9       30.05F
DE QUEEN       SUNNY     63  43  48 NE6       30.07S
$$

ARZ056-057-069-231700-
SOUTHEAST ARKANSAS

CITY           SKY/WX    TMP DP  RH WIND       PRES   REMARKS
PINE BLUFF     SUNNY     60  45  57 N15G24    30.03S
STUTTGART      MOSUNNY   61  39  44 NW15      30.02S
MONTICELLO     PTSUNNY   60  45  57 N9        30.02R

$$






USA.gov is the U.S. government's official web portal to all federal, state and local government web resources and services.